(339776) = 2000 GT149 = 2005 SX119

Discovered at Kitt Peak on 2005-09-29 by Spacewatch.

Orbit

Orbit type: Main Belt

Note: WebGL enabled browser required.

epoch2024-03-31.0
epoch JD2460400.5
perihelion date2024-01-09.65241
perihelion JD2460319.15241
argument of perihelion (°)135.66748
ascending node (°)354.58237
inclination (°)2.55459
eccentricity0.1601812
perihelion distance (AU)1.9182190
Tisserand w.r.t. Jupiter3.6
ΔV w.r.t. Earth (km/sec)8.6
semimajor axis (AU)2.2840867
mean anomaly (°)23.22628
mean daily motion (°/day)0.28551900
aphelion distance (AU)2.650
period (years)3.45
P-vector [x]-0.64618750
P-vector [y]0.68722966
P-vector [z]0.33189924
Q-vector [x]-0.76316709
Q-vector [y]-0.57947421
Q-vector [z]-0.28598188
absolute magnitude17.88
phase slope0.15
uncertainty0
referenceMPEC 2024-E73
observations used298
oppositions11
arc length (days)8768
first opposition used2000
last opposition used2024
residual rms (arc-secs)0.75
perturbers coarse indicatorM-v
perturbers precise indicator003Ek
first observation date used2000-03-03.0
last observation date used2024-03-05.0
computer nameMPCLINUX
JD of orbit computation2456819.654569
perihelion JD uncertainty (days)2.0620E-04
argument of perihelion uncertainty (°)1.1653E-04
ascending node uncertainty (°)9.9980E-05
inclination uncertainty (°)9.2088E-06
eccentricity uncertainty 6.2189E-08
perihelion distance uncertainty (AU)1.3551E-07
Minimum Orbit Intersection Distances (in AU)
for orbit epoch: 2460400.5, reference: E2024-GF4
Mercury1.58058
Venus1.19993
Earth0.93435
Mars0.26323
Jupiter2.39278
Saturn6.96908
Uranus16.4375
Neptune27.3818

Observations

304 total observations over interval: 2000 03 03.440190 – 2024 03 05.200183
These data are available for download (format description).

Date (UT) J2000 RA J2000 Dec Magn Location Ref
2000 03 03.440190 12 19 04.488 -02 01 29.95 20.34 V 645 – Apache Point-Sloan Digital Sky Survey MPS 150766
2000 03 03.443662 12 19 04.314 -02 01 29.31 21.26   645 – Apache Point-Sloan Digital Sky Survey MPS 150766
2000 03 11.37951 12 12 12.76 -01 33 37.5 20.0   704 – Lincoln Laboratory ETS, New Mexico MPS 150766
2000 03 11.39451 12 12 11.82 -01 33 33.1 20.3   704 – Lincoln Laboratory ETS, New Mexico MPS 150766
2000 03 11.42368 12 12 10.07 -01 33 26.8 20.4   704 – Lincoln Laboratory ETS, New Mexico MPS 150766
2000 04 05.19683 11 48 56.97 +00 08 38.1 19.9   704 – Lincoln Laboratory ETS, New Mexico MPS 14446
2000 04 05.21140 11 48 56.30 +00 08 42.8 20.1   704 – Lincoln Laboratory ETS, New Mexico MPS 14446
2000 04 05.22599 11 48 55.64 +00 08 45.2 20.1   704 – Lincoln Laboratory ETS, New Mexico MPS 14446
2000 04 05.24058 11 48 54.86 +00 08 47.6 19.7   704 – Lincoln Laboratory ETS, New Mexico MPS 14446
2000 04 05.25516 11 48 54.05 +00 08 52.3 19.9   704 – Lincoln Laboratory ETS, New Mexico MPS 14446
2000 04 10.22491 11 45 19.12 +00 24 05.3 21.2 V 691 – Steward Observatory, Kitt Peak-Spacewatch MPS 14446
2000 04 10.24563 11 45 18.26 +00 24 09.0 21.1 V 691 – Steward Observatory, Kitt Peak-Spacewatch MPS 14446
2000 04 10.26642 11 45 17.39 +00 24 12.2 21.5 V 691 – Steward Observatory, Kitt Peak-Spacewatch MPS 14446
2000 04 10.26642 11 45 17.28 +00 24 12.1 21.1 V 691 – Steward Observatory, Kitt Peak-Spacewatch MPS 1100564
2005 09 29.16626 00 29 06.08 +04 10 03.5 21.2 V 291 – LPL/Spacewatch II MPS 144276
2005 09 29.19045 00 29 04.62 +04 09 56.3 21.1 V 291 – LPL/Spacewatch II MPS 144276
2005 09 29.21403 00 29 03.14 +04 09 48.8 21.0 V 291 – LPL/Spacewatch II MPS 144276
2005 09 30.25625 00 28 00.12 +04 04 20.7 20.6 V G96 – Mt. Lemmon Survey MPS 144276
2005 09 30.26236 00 27 59.72 +04 04 18.6 20.6 V G96 – Mt. Lemmon Survey MPS 144276
2005 09 30.26845 00 27 59.32 +04 04 16.8 20.7 V G96 – Mt. Lemmon Survey MPS 144276
2005 09 30.27454 00 27 58.96 +04 04 14.7 20.7 V G96 – Mt. Lemmon Survey MPS 144276
2005 10 01.16580 00 27 05.22 +03 59 32.9 20.8 V 691 – Steward Observatory, Kitt Peak-Spacewatch MPS 144276
2005 10 01.18665 00 27 03.91 +03 59 26.3 20.6 V 691 – Steward Observatory, Kitt Peak-Spacewatch MPS 144276
2005 10 01.20748 00 27 02.63 +03 59 19.4 20.3 V 691 – Steward Observatory, Kitt Peak-Spacewatch MPS 144276
2005 10 05.17735 00 23 02.48 +03 38 14.5 21.2 V 691 – Steward Observatory, Kitt Peak-Spacewatch MPS 144276
2005 10 05.19463 00 23 01.41 +03 38 09.5 21.4 V 691 – Steward Observatory, Kitt Peak-Spacewatch MPS 144276
2005 10 05.21196 00 23 00.33 +03 38 03.6 20.9 V 691 – Steward Observatory, Kitt Peak-Spacewatch MPS 144276
2005 10 25.24177 00 05 19.64 +02 03 12.7 20.9 V G96 – Mt. Lemmon Survey MPS 147568
2005 10 25.24901 00 05 19.35 +02 03 10.8 21.1 V G96 – Mt. Lemmon Survey MPS 147568
2005 10 25.25625 00 05 19.03 +02 03 09.5 21.3 V G96 – Mt. Lemmon Survey MPS 147568
2005 10 25.26351 00 05 18.70 +02 03 07.5 21.0 V G96 – Mt. Lemmon Survey MPS 147568
2005 10 27.20780 00 04 00.76 +01 56 09.3 21.7 V G96 – Mt. Lemmon Survey MPS 147568
2005 10 27.21446 00 04 00.51 +01 56 07.7 21.8 V G96 – Mt. Lemmon Survey MPS 147568
2005 10 27.22112 00 04 00.26 +01 56 06.6 21.4 V G96 – Mt. Lemmon Survey MPS 147568
2005 10 27.22791 00 03 59.94 +01 56 05.6 21.9 V G96 – Mt. Lemmon Survey MPS 147568
2007 03 10.46016 13 34 20.13 -11 02 17.4 20.9 V 691 – Steward Observatory, Kitt Peak-Spacewatch MPS 202358
2007 03 10.48121 13 34 19.49 -11 02 16.6 20.5 V 691 – Steward Observatory, Kitt Peak-Spacewatch MPS 202358
2007 03 10.49986 13 34 18.89 -11 02 16.2 20.6 V 691 – Steward Observatory, Kitt Peak-Spacewatch MPS 202358
2007 03 20.36644 13 28 08.07 -10 47 04.8 20.9 V 691 – Steward Observatory, Kitt Peak-Spacewatch MPS 204606
2007 03 20.38416 13 28 07.19 -10 47 01.9 20.9 V 691 – Steward Observatory, Kitt Peak-Spacewatch MPS 204606
2007 03 20.40190 13 28 06.32 -10 46 59.1 21.0 V 691 – Steward Observatory, Kitt Peak-Spacewatch MPS 204606
2007 03 26.35920 13 23 06.12 -10 29 48.2 20.7 V 691 – Steward Observatory, Kitt Peak-Spacewatch MPS 205552
2007 03 26.37686 13 23 05.11 -10 29 45.0 20.7 V 691 – Steward Observatory, Kitt Peak-Spacewatch MPS 205552
2007 03 26.39453 13 23 04.11 -10 29 41.2 20.5 V 691 – Steward Observatory, Kitt Peak-Spacewatch MPS 205552
2007 04 18.25671 13 00 39.34 -08 52 41.0 19.9 V G96 – Mt. Lemmon Survey MPS 206929
2007 04 18.26327 13 00 38.95 -08 52 39.1 20.0 V G96 – Mt. Lemmon Survey MPS 206929
2007 04 18.26993 13 00 38.55 -08 52 37.7 20.0 V G96 – Mt. Lemmon Survey MPS 206929
2007 04 18.27649 13 00 38.16 -08 52 35.7 20.0 V G96 – Mt. Lemmon Survey MPS 206929
2007 04 26.18276 12 53 55.13 -08 19 29.2   291 – LPL/Spacewatch II MPS 208090
2007 04 26.18662 12 53 55.08 -08 19 27.6   291 – LPL/Spacewatch II MPS 208090
2007 04 26.19049 12 53 54.87 -08 19 26.4   291 – LPL/Spacewatch II MPS 208090
2007 04 26.21093 12 53 53.87 -08 19 22.3   291 – LPL/Spacewatch II MPS 208090
2007 04 26.21468 12 53 53.73 -08 19 21.3   291 – LPL/Spacewatch II MPS 208090
2007 04 26.21876 12 53 53.53 -08 19 20.0   291 – LPL/Spacewatch II MPS 208090
2007 04 26.29739 12 53 49.74 -08 19 02.3   291 – LPL/Spacewatch II MPS 208090
2007 04 26.30488 12 53 49.36 -08 19 00.3   291 – LPL/Spacewatch II MPS 208090
2007 04 26.30879 12 53 49.19 -08 18 59.7   291 – LPL/Spacewatch II MPS 208090
2007 04 27.18407 12 53 10.18 -08 15 40.3   291 – LPL/Spacewatch II MPS 208090
2007 04 27.18778 12 53 10.02 -08 15 40.1   291 – LPL/Spacewatch II MPS 208090
2007 04 27.19152 12 53 09.82 -08 15 39.3   291 – LPL/Spacewatch II MPS 208090
2007 04 27.26570 12 53 06.39 -08 15 22.7   291 – LPL/Spacewatch II MPS 208090
2007 04 27.27921 12 53 05.76 -08 15 20.1   291 – LPL/Spacewatch II MPS 208090
2007 04 27.28295 12 53 05.62 -08 15 19.3   291 – LPL/Spacewatch II MPS 208090
2007 04 27.32236 12 53 03.70 -08 15 09.8   291 – LPL/Spacewatch II MPS 208090
2007 04 27.32737 12 53 03.48 -08 15 09.1   291 – LPL/Spacewatch II MPS 208090
2007 04 27.33105 12 53 03.30 -08 15 08.0   291 – LPL/Spacewatch II MPS 208090
2012 10 08.419554 01 14 51.789 +09 51 20.06 20.5 r F51 – Pan-STARRS 1, Haleakala MPS 435069
2012 10 08.431642 01 14 51.018 +09 51 16.42 20.4 r F51 – Pan-STARRS 1, Haleakala MPS 435069
2012 10 08.496402 01 14 46.902 +09 50 57.95 20.3 i F51 – Pan-STARRS 1, Haleakala MPS 435069
2012 10 08.509504 01 14 46.062 +09 50 54.04 20.3 i F51 – Pan-STARRS 1, Haleakala MPS 435069
2012 10 09.24221 01 14 01.53 +09 47 21.1 20.5 V G96 – Mt. Lemmon Survey MPS 435069
2012 10 09.25089 01 14 00.99 +09 47 18.9 20.6 V G96 – Mt. Lemmon Survey MPS 435069
2012 10 09.25943 01 14 00.45 +09 47 16.4 20.4 V G96 – Mt. Lemmon Survey MPS 435069
2012 10 09.26801 01 13 59.91 +09 47 14.1 20.4 V G96 – Mt. Lemmon Survey MPS 435069
2012 10 09.352642 01 13 54.820 +09 46 50.91 20.5 w F51 – Pan-STARRS 1, Haleakala MPS 435069
2012 10 09.366762 01 13 53.914 +09 46 46.92 20.5 w F51 – Pan-STARRS 1, Haleakala MPS 435069
2012 10 09.380990 01 13 53.015 +09 46 42.63 20.5 w F51 – Pan-STARRS 1, Haleakala MPS 435069
2012 10 09.395295 01 13 52.105 +09 46 38.48 20.5 w F51 – Pan-STARRS 1, Haleakala MPS 435069
2012 10 10.22221 01 13 01.23 +09 42 34.8 19.9 V 703 – Catalina Sky Survey MPS 435069
2012 10 10.22824 01 13 00.76 +09 42 32.6 19.9 V 703 – Catalina Sky Survey MPS 435069
2012 10 10.24204 01 13 00.08 +09 42 32.0 20.0 V 703 – Catalina Sky Survey MPS 435069
2012 10 14.15129 01 08 57.42 +09 22 55.2 20.7 V 691 – Steward Observatory, Kitt Peak-Spacewatch MPS 435069
2012 10 14.16389 01 08 56.62 +09 22 51.1 20.5 V 691 – Steward Observatory, Kitt Peak-Spacewatch MPS 435069
2012 10 14.17648 01 08 55.81 +09 22 47.5 20.5 V 691 – Steward Observatory, Kitt Peak-Spacewatch MPS 435069
2012 11 04.252669 00 49 16.646 +07 40 21.74 21.0 w F51 – Pan-STARRS 1, Haleakala MPS 441612
2012 11 04.266774 00 49 15.992 +07 40 18.24 21.1 w F51 – Pan-STARRS 1, Haleakala MPS 441612
2012 11 04.280857 00 49 15.332 +07 40 14.88 21.2 w F51 – Pan-STARRS 1, Haleakala MPS 441612
2012 11 04.295061 00 49 14.662 +07 40 11.40 21.0 w F51 – Pan-STARRS 1, Haleakala MPS 441612
2014 04 01.40160 14 35 32.02 -17 50 18.3   691 – Steward Observatory, Kitt Peak-Spacewatch MPS 509684
